Volver al catálogo

STARLINK-11230

ActivoComunicacionesVLEO
NORAD 61053·PAYLOAD·🇺🇸 United States

Lanzado Sep 13, 2024 desde Vandenberg Space Force Base

Loading…

Próximos Pases (próximas 24 horas)

TLE

ActualizadoSource: CelesTrak SupGP

Época: Sep 14, 2026, 22:18 UTC

1 61053C 24164D   26257.92965278 -.00014585  00000+0 -12012-3 0  2572
2 61053  53.1563  98.2334 0001066  89.4208 257.3497 15.69720926    18

Sigue STARLINK-11230 en tiempo real con AllMySat

Download on the App Store